Change the Weather History Date:

Wednesday, January 30, 2013

  Actual Average Record
Temperature  
Mean Temperature 22 °F -  
Max Temperature 33 °F 24 °F 38 °F (1988)
Min Temperature 12 °F 8 °F -18 °F (1951)
Degree Days  
Heating Degree Days 42    
Moisture  
Dew Point 25 °F    
Average Humidity 93    
Maximum Humidity 100    
Minimum Humidity 79    
Precipitation  
Precipitation 0.00 in - - ()
Sea Level Pressure  
Sea Level Pressure 29.32 in    
Wind  
Wind Speed 10 mph (NNW)    
Max Wind Speed 16 mph    
Max Gust Speed 26 mph    
Visibility 3 miles    
Events Snow    
Averages and records for this station are not official NWS values.
T = Trace of Precipitation, MM = Missing Value Source: NWS Daily Summary

Daily Weather History Graph

Daily Weather History Graph

Search for Another Location

Airport or City:

Trip Planner

Search our weather history database for the weather conditions in past years. The results will help you decide how hot, cold, wet, or windy it might be!

Date:

Astronomy

Jan. 30, 2013 Rise Set
Actual Time 8:07 AM EST 5:43 PM EST
Civil Twilight 7:34 AM EST 6:16 PM EST
Nautical Twilight 6:58 AM EST 6:52 PM EST
Astronomical Twilight 6:23 AM EST 7:27 PM EST
Moon 9:59 PM EST (1/30) 9:18 AM EST (1/30)
Length of Visible Light 10h 41m
Length of Day
9h 36m
Waning Gibbous, 88% of the Moon is Illuminated
Jan 30
Waning Gibbous
Feb 3
Last Quarter
Feb 10
New
Feb 17
First Quarter
Feb 25
Full

Hourly Weather History & Observations

Time (EST) Temp. Windchill Dew Point Humidity Pressure Visibility Wind Dir Wind Speed Gust Speed Precip Events Conditions
12:15 AM 33.8 °F 27.7 °F 32.0 °F 93% 29.48 in 10.0 mi NW 6.9 mph - N/A   Overcast
12:34 AM 33.8 °F 27.7 °F 32.0 °F 93% 29.48 in 10.0 mi NW 6.9 mph - N/A   Overcast
12:54 AM 33.8 °F 25.8 °F 32.0 °F 93% 29.48 in 10.0 mi NW 10.4 mph 17.3 mph N/A   Overcast
1:15 AM 33.8 °F 26.4 °F 32.0 °F 93% 29.47 in 10.0 mi NNW 9.2 mph - N/A   Overcast
1:34 AM 33.8 °F 27.0 °F 32.0 °F 93% 29.46 in 10.0 mi NW 8.1 mph - N/A   Overcast
1:55 AM 33.8 °F 25.8 °F 32.0 °F 93% 29.46 in 10.0 mi NNW 10.4 mph 16.1 mph N/A   Overcast
2:15 AM 33.8 °F 25.8 °F 32.0 °F 93% 29.47 in 10.0 mi NW 10.4 mph 17.3 mph N/A Snow Light Snow
2:34 AM 33.8 °F 26.4 °F 33.8 °F 100% 29.46 in 7.0 mi NNW 9.2 mph 23.0 mph N/A Snow Light Snow
2:55 AM 33.8 °F 25.8 °F 32.0 °F 93% 29.46 in 4.0 mi NW 10.4 mph 18.4 mph N/A Snow Light Snow
3:14 AM 33.8 °F 25.8 °F 32.0 °F 93% 29.43 in 4.0 mi NNW 10.4 mph 16.1 mph N/A Snow Light Snow
3:35 AM 33.8 °F 26.4 °F 32.0 °F 93% 29.43 in 10.0 mi NW 9.2 mph 19.6 mph N/A   Overcast
3:55 AM 33.8 °F 25.8 °F 32.0 °F 93% 29.44 in 10.0 mi NW 10.4 mph 21.9 mph N/A   Overcast
4:14 AM 33.8 °F 25.3 °F 32.0 °F 93% 29.42 in 10.0 mi NW 11.5 mph 17.3 mph N/A   Overcast
4:35 AM 33.8 °F 27.0 °F 32.0 °F 93% 29.41 in 10.0 mi NNW 8.1 mph - N/A   Overcast
4:55 AM 33.8 °F 27.0 °F 32.0 °F 93% 29.40 in 10.0 mi NNW 8.1 mph - N/A   Overcast
5:14 AM 33.8 °F 27.0 °F 32.0 °F 93% 29.40 in 7.0 mi NNW 8.1 mph 17.3 mph N/A   Overcast
5:35 AM 33.8 °F 26.4 °F 32.0 °F 93% 29.41 in 4.0 mi NNW 9.2 mph - N/A   Overcast
5:55 AM 33.8 °F 27.0 °F 32.0 °F 93% 29.41 in 5.0 mi NNW 8.1 mph - N/A   Overcast
6:14 AM 33.8 °F 26.4 °F 32.0 °F 93% 29.41 in 7.0 mi NW 9.2 mph - N/A   Overcast
6:35 AM 33.8 °F 26.4 °F 32.0 °F 93% 29.40 in 7.0 mi NNW 9.2 mph 17.3 mph N/A   Overcast
6:54 AM 33.8 °F 25.3 °F 30.2 °F 87% 29.39 in 2.0 mi NNW 11.5 mph 18.4 mph N/A Snow Light Snow
7:15 AM 32.0 °F 24.2 °F 30.2 °F 93% 29.39 in 2.0 mi NNW 9.2 mph 17.3 mph N/A Snow Light Snow
7:35 AM 32.0 °F 22.5 °F 30.2 °F 93% 29.37 in 2.0 mi NNW 12.7 mph 17.3 mph N/A Snow Light Snow
7:54 AM 30.2 °F 21.3 °F 30.2 °F 100% 29.37 in 2.0 mi NNW 10.4 mph 18.4 mph N/A Snow Light Snow
8:15 AM 30.2 °F 21.9 °F 30.2 °F 100% 29.39 in 2.0 mi NNW 9.2 mph 16.1 mph N/A Snow Light Snow
8:35 AM 30.2 °F 21.3 °F 30.2 °F 100% 29.39 in 2.5 mi NNW 10.4 mph 18.4 mph N/A Snow Light Snow
8:54 AM 30.2 °F 20.2 °F 30.2 °F 100% 29.38 in 1.5 mi NNW 12.7 mph 19.6 mph N/A Snow Light Snow
9:15 AM 30.2 °F 21.9 °F 28.4 °F 93% 29.39 in 0.8 mi North 9.2 mph 17.3 mph N/A Snow Light Snow
9:35 AM 30.2 °F 19.3 °F 28.4 °F 93% 29.37 in 0.8 mi North 15.0 mph 19.6 mph N/A Snow Light Snow
9:54 AM 30.2 °F 20.8 °F 28.4 °F 93% 29.37 in 1.2 mi NNW 11.5 mph 18.4 mph N/A Snow Light Snow
10:15 AM 30.2 °F 20.8 °F 28.4 °F 93% 29.35 in 1.2 mi NNW 11.5 mph 20.7 mph N/A Snow Light Snow
10:35 AM 30.2 °F 23.4 °F 28.4 °F 93% 29.35 in 1.2 mi NNW 6.9 mph - N/A Snow Light Snow
10:54 AM 30.2 °F 20.8 °F 28.4 °F 93% 29.35 in 3.0 mi NNW 11.5 mph 17.3 mph N/A Snow Light Snow
11:15 AM 28.4 °F 18.0 °F 28.4 °F 100% 29.37 in 0.5 mi NNW 12.7 mph 20.7 mph N/A Snow Light Snow
11:34 AM 28.4 °F 19.1 °F 26.6 °F 93% 29.35 in 0.8 mi NNW 10.4 mph 18.4 mph N/A Snow Light Snow
11:55 AM 28.4 °F 19.7 °F 26.6 °F 93% 29.33 in 0.5 mi NNW 9.2 mph - N/A Snow Snow
12:15 PM 28.4 °F 19.1 °F 26.6 °F 93% 29.33 in 1.0 mi North 10.4 mph 17.3 mph N/A Snow Light Snow
12:34 PM 28.4 °F 18.0 °F 26.6 °F 93% 29.32 in 1.5 mi North 12.7 mph 18.4 mph N/A Snow Light Snow
12:55 PM 28.4 °F 17.5 °F 26.6 °F 93% 29.29 in 1.0 mi North 13.8 mph 19.6 mph N/A Snow Light Snow
1:15 PM 26.6 °F 15.2 °F 26.6 °F 100% 29.27 in 0.8 mi North 13.8 mph 18.4 mph N/A Snow Light Snow
1:34 PM 26.6 °F 14.7 °F 24.8 °F 93% 29.27 in 1.0 mi North 15.0 mph 19.6 mph N/A Snow Light Snow
1:55 PM 26.6 °F 16.8 °F 24.8 °F 93% 29.24 in 0.2 mi North 10.4 mph 17.3 mph N/A Snow Snow
2:15 PM 26.6 °F 16.2 °F 24.8 °F 93% 29.23 in 0.5 mi North 11.5 mph 17.3 mph N/A Snow Snow
2:34 PM 26.6 °F 17.5 °F 24.8 °F 93% 29.22 in 0.5 mi North 9.2 mph 17.3 mph N/A Snow Light Snow
2:55 PM 26.6 °F 20.0 °F 24.8 °F 93% 29.21 in 0.5 mi North 5.8 mph 16.1 mph N/A Snow Light Snow
3:14 PM 26.6 °F 17.5 °F 24.8 °F 93% 29.21 in 0.5 mi North 9.2 mph - N/A Snow Light Snow
3:34 PM 26.6 °F 18.2 °F 24.8 °F 93% 29.21 in 0.8 mi North 8.1 mph 16.1 mph N/A Snow Light Snow
3:55 PM 26.6 °F 18.2 °F 24.8 °F 93% 29.23 in 0.2 mi NNW 8.1 mph - N/A Snow Snow
4:14 PM 26.6 °F 15.7 °F 24.8 °F 93% 29.23 in 0.2 mi NNW 12.7 mph 18.4 mph N/A Snow Snow
4:35 PM 24.8 °F 14.0 °F 23.0 °F 93% 29.22 in 0.2 mi NNW 11.5 mph 18.4 mph N/A Snow Snow
4:55 PM 24.8 °F 13.4 °F 23.0 °F 93% 29.21 in 0.5 mi NNW 12.7 mph 16.1 mph N/A Snow Snow
5:14 PM 24.8 °F 14.6 °F 21.2 °F 86% 29.23 in 0.5 mi North 10.4 mph 17.3 mph N/A Snow Snow
5:35 PM 23.0 °F 12.4 °F 21.2 °F 93% 29.21 in 0.8 mi North 10.4 mph 19.6 mph N/A Snow Snow
5:55 PM 23.0 °F 11.7 °F 21.2 °F 93% 29.20 in 1.2 mi North 11.5 mph 17.3 mph N/A Snow Light Snow
6:14 PM 23.0 °F 10.1 °F 21.2 °F 93% 29.21 in 0.8 mi North 15.0 mph 24.2 mph N/A Snow Snow
6:35 PM 21.2 °F 10.1 °F 19.4 °F 93% 29.20 in 1.0 mi North 10.4 mph - N/A Snow Light Snow
6:55 PM 21.2 °F 11.7 °F 19.4 °F 93% 29.20 in 0.8 mi North 8.1 mph - N/A Snow Snow
7:14 PM 21.2 °F 9.5 °F 19.4 °F 93% 29.20 in 1.0 mi North 11.5 mph 23.0 mph N/A Snow Light Snow
7:35 PM 21.2 °F 10.9 °F 17.6 °F 86% 29.20 in 1.0 mi North 9.2 mph 24.2 mph N/A Snow Snow
7:55 PM 19.4 °F 7.2 °F 17.6 °F 93% 29.20 in 1.0 mi North 11.5 mph 20.7 mph N/A Snow Snow
8:14 PM 19.4 °F 8.6 °F 17.6 °F 93% 29.20 in 1.2 mi North 9.2 mph 18.4 mph N/A Snow Light Snow
8:35 PM - - - N/A% - - North - - N/A   Unknown
8:55 PM 17.6 °F 4.3 °F 15.8 °F 93% 29.19 in 1.5 mi North 12.7 mph 19.6 mph N/A Snow Light Snow
9:15 PM 17.6 °F 5.7 °F 15.8 °F 93% 29.19 in 1.2 mi North 10.4 mph 19.6 mph N/A Snow Light Snow
9:34 PM 17.6 °F 5.0 °F 14.0 °F 86% 29.19 in 2.0 mi NNW 11.5 mph 23.0 mph N/A Snow Light Snow
9:55 PM 15.8 °F 0.3 °F 12.2 °F 86% 29.20 in 3.0 mi NNW 16.1 mph 23.0 mph N/A Snow Light Snow
10:15 PM 15.8 °F 0.3 °F 12.2 °F 86% 29.20 in 4.0 mi NNW 16.1 mph 24.2 mph N/A Snow Light Snow
10:34 PM 15.8 °F 2.1 °F 12.2 °F 86% 29.21 in 2.0 mi NNW 12.7 mph 20.7 mph N/A Snow Light Snow
10:55 PM 15.8 °F 1.4 °F 10.4 °F 79% 29.21 in 2.0 mi NNW 13.8 mph 26.5 mph N/A Snow Light Snow
11:15 PM 14.0 °F -0.8 °F 10.4 °F 86% 29.21 in 1.5 mi NNW 13.8 mph 23.0 mph N/A Snow Light Snow
11:34 PM 12.2 °F -3.7 °F 10.4 °F 92% 29.21 in 1.8 mi NNW 15.0 mph 23.0 mph N/A Snow Light Snow
11:55 PM 12.2 °F -4.3 °F 8.6 °F 85% 29.21 in 4.0 mi NNW 16.1 mph 23.0 mph N/A Snow Light Snow